Aviation Digital Data Service (ADDS)

Output produced by METARs form (1753 UTC 24 March 2017)
found at http://www.aviationweather.gov/adds/metars/
 
OMAA 241700Z 05010KT CAVOK 23/19 Q1010 RETS NOSIG
TAF OMAA 241700Z 2418/2524 05010KT 7000 SCT030 
     PROB30 
     TEMPO 2418/2421 VRB20G38KT 3000 TSRA SCT040CB 
     BECMG 2420/2422 16013KT 
     PROB40 
     TEMPO 2504/2515 VRB25G38KT 2500 TSRA SCT040CB
       
OMAA 241700Z 05010KT CAVOK 23/19 Q1010 RETS NOSIG
TAF OMAA 241700Z 2418/2524 05010KT 7000 SCT030 
     PROB30 
     TEMPO 2418/2421 VRB20G38KT 3000 TSRA SCT040CB 
     BECMG 2420/2422 16013KT 
     PROB40 
     TEMPO 2504/2515 VRB25G38KT 2500 TSRA SCT040CB
       
OMAD 241700Z 06007KT CAVOK 23/20 Q1010 NOSIG
TAF OMAD 241700Z 2418/2524 06010KT 7000 SCT030 
     TEMPO 2418/2420 VRB20G35KT 3000 TSRA SCT040CB 
     BECMG 2421/2423 16015KT 
     PROB40 
     TEMPO 2504/2515 VRB20G35KT 4000 TSRA FEW040CB
       
OMAL 241700Z 10011KT 9999 FEW045CB 24/18 Q1011 WS ALL RWY TEMPO VRB25G38KT 2000 TSRA
TAF OMAL 241700Z 2418/2524 10012KT 7000 SCT035 
     TEMPO 2418/2421 VRB25G40KT 2000 TSRA SCT035CB 
     BECMG 2422/2424 17014KT 
     PROB40 
     TEMPO 2506/2515 VRB20G30KT 3000 TSRA FEW040CB
       
OMDB 241700Z 07010KT 050V110 9999 FEW030CB 23/17 Q1012 RETS WS ALL RWY TEMPO VRB25G35KT
TAF OMDB 241706Z 2418/2600 08009KT 8000 FEW030 
     PROB30 
     TEMPO 2418/2423 VRB25G40KT 1500 TSRA BLDU FEW030CB 
     PROB30 
     TEMPO 2423/2508 VRB18G28KT 4000 SHRA FEW030TCU 
     BECMG 2505/2507 15013KT 
     BECMG 2509/2511 36015KT 
     BECMG 2515/2517 08009KT
       
OMDW 241700Z 04011KT CAVOK 22/18 Q1012 WS ALL RWY NOSIG
TAF OMDW 241706Z 2418/2600 09009KT 8000 FEW030 
     PROB30 
     TEMPO 2418/2423 VRB25G40KT 1500 TSRA BLDU FEW030CB 
     PROB30 
     TEMPO 2423/2508 VRB18G28KT 3000 SHRA BLDU FEW030TCU 
     BECMG 2503/2505 15013KT 
     PROB40 2505/2511 17020G30KT 3000 BLDU 
     BECMG 2511/2513 01015KT 
     BECMG 2515/2517 09009KT
       
OMFJ 241700Z 33009KT 320V070 8000 RA FEW020 22/19 Q1016 RMK A3000
TAF OMFJ 241700Z 2418/2524 34010KT 8000 SCT030 
     TEMPO 2418/2504 06010KT TSRA SCT035CB 
     BECMG 2504/2506 12010KT 
     PROB30 
     TEMPO 2504/2512 5000 TSRA FEW035CB
       
OMRK 241700Z 25008KT 230V290 9999 TS SCT035 FEW050CB 20/19 Q1013 A2992
TAF OMRK 241706Z 2418/2600 09009KT 8000 FEW030 
     PROB30 
     TEMPO 2418/2423 VRB25G40KT 1500 TSRA BLDU FEW030CB 
     PROB30 
     TEMPO 2423/2508 VRB18G28KT 3000 SHRA BLDU FEW030TCU 
     BECMG 2509/2511 36015KT 
     BECMG 2514/2516 09009KT
       
OMSJ 241700Z 09009KT 9999 FEW030CB 22/17 Q1012 RETS
TAF OMSJ 241706Z 2418/2600 08009KT 8000 FEW030 
     PROB30 
     TEMPO 2418/2423 VRB25G40KT 1500 TSRA BLDU FEW030CB 
     PROB30 
     TEMPO 2423/2508 VRB18G28KT 3000 SHRA BLDU FEW030TCU 
     BECMG 2505/2507 15013KT 
     BECMG 2509/2511 36015KT 
     BECMG 2515/2517 09009KT
       
OMAL 241700Z 10011KT 9999 FEW045CB 24/18 Q1011 WS ALL RWY TEMPO VRB25G38KT 2000 TSRA
TAF OMAL 241700Z 2418/2524 10012KT 7000 SCT035 
     TEMPO 2418/2421 VRB25G40KT 2000 TSRA SCT035CB 
     BECMG 2422/2424 17014KT 
     PROB40 
     TEMPO 2506/2515 VRB20G30KT 3000 TSRA FEW040CB
       
OMAD 241700Z 06007KT CAVOK 23/20 Q1010 NOSIG
TAF OMAD 241700Z 2418/2524 06010KT 7000 SCT030 
     TEMPO 2418/2420 VRB20G35KT 3000 TSRA SCT040CB 
     BECMG 2421/2423 16015KT 
     PROB40 
     TEMPO 2504/2515 VRB20G35KT 4000 TSRA FEW040CB
       
OMDB 241700Z 07010KT 050V110 9999 FEW030CB 23/17 Q1012 RETS WS ALL RWY TEMPO VRB25G35KT
TAF OMDB 241706Z 2418/2600 08009KT 8000 FEW030 
     PROB30 
     TEMPO 2418/2423 VRB25G40KT 1500 TSRA BLDU FEW030CB 
     PROB30 
     TEMPO 2423/2508 VRB18G28KT 4000 SHRA FEW030TCU 
     BECMG 2505/2507 15013KT 
     BECMG 2509/2511 36015KT 
     BECMG 2515/2517 08009KT
       
OMFJ 241700Z 33009KT 320V070 8000 RA FEW020 22/19 Q1016 RMK A3000
TAF OMFJ 241700Z 2418/2524 34010KT 8000 SCT030 
     TEMPO 2418/2504 06010KT TSRA SCT035CB 
     BECMG 2504/2506 12010KT 
     PROB30 
     TEMPO 2504/2512 5000 TSRA FEW035CB
       
OMRK 241700Z 25008KT 230V290 9999 TS SCT035 FEW050CB 20/19 Q1013 A2992
TAF OMRK 241706Z 2418/2600 09009KT 8000 FEW030 
     PROB30 
     TEMPO 2418/2423 VRB25G40KT 1500 TSRA BLDU FEW030CB 
     PROB30 
     TEMPO 2423/2508 VRB18G28KT 3000 SHRA BLDU FEW030TCU 
     BECMG 2509/2511 36015KT 
     BECMG 2514/2516 09009KT
       
OMAA 241700Z 05010KT CAVOK 23/19 Q1010 RETS NOSIG
TAF OMAA 241700Z 2418/2524 05010KT 7000 SCT030 
     PROB30 
     TEMPO 2418/2421 VRB20G38KT 3000 TSRA SCT040CB 
     BECMG 2420/2422 16013KT 
     PROB40 
     TEMPO 2504/2515 VRB25G38KT 2500 TSRA SCT040CB
       
OMAD 241700Z 06007KT CAVOK 23/20 Q1010 NOSIG
TAF OMAD 241700Z 2418/2524 06010KT 7000 SCT030 
     TEMPO 2418/2420 VRB20G35KT 3000 TSRA SCT040CB 
     BECMG 2421/2423 16015KT 
     PROB40 
     TEMPO 2504/2515 VRB20G35KT 4000 TSRA FEW040CB
       
OMAL 241700Z 10011KT 9999 FEW045CB 24/18 Q1011 WS ALL RWY TEMPO VRB25G38KT 2000 TSRA
TAF OMAL 241700Z 2418/2524 10012KT 7000 SCT035 
     TEMPO 2418/2421 VRB25G40KT 2000 TSRA SCT035CB 
     BECMG 2422/2424 17014KT 
     PROB40 
     TEMPO 2506/2515 VRB20G30KT 3000 TSRA FEW040CB
       
OMDB 241700Z 07010KT 050V110 9999 FEW030CB 23/17 Q1012 RETS WS ALL RWY TEMPO VRB25G35KT
TAF OMDB 241706Z 2418/2600 08009KT 8000 FEW030 
     PROB30 
     TEMPO 2418/2423 VRB25G40KT 1500 TSRA BLDU FEW030CB 
     PROB30 
     TEMPO 2423/2508 VRB18G28KT 4000 SHRA FEW030TCU 
     BECMG 2505/2507 15013KT 
     BECMG 2509/2511 36015KT 
     BECMG 2515/2517 08009KT
       
OMDW 241700Z 04011KT CAVOK 22/18 Q1012 WS ALL RWY NOSIG
TAF OMDW 241706Z 2418/2600 09009KT 8000 FEW030 
     PROB30 
     TEMPO 2418/2423 VRB25G40KT 1500 TSRA BLDU FEW030CB 
     PROB30 
     TEMPO 2423/2508 VRB18G28KT 3000 SHRA BLDU FEW030TCU 
     BECMG 2503/2505 15013KT 
     PROB40 2505/2511 17020G30KT 3000 BLDU 
     BECMG 2511/2513 01015KT 
     BECMG 2515/2517 09009KT
       
OMFJ 241700Z 33009KT 320V070 8000 RA FEW020 22/19 Q1016 RMK A3000
TAF OMFJ 241700Z 2418/2524 34010KT 8000 SCT030 
     TEMPO 2418/2504 06010KT TSRA SCT035CB 
     BECMG 2504/2506 12010KT 
     PROB30 
     TEMPO 2504/2512 5000 TSRA FEW035CB
       
OMRK 241700Z 25008KT 230V290 9999 TS SCT035 FEW050CB 20/19 Q1013 A2992
TAF OMRK 241706Z 2418/2600 09009KT 8000 FEW030 
     PROB30 
     TEMPO 2418/2423 VRB25G40KT 1500 TSRA BLDU FEW030CB 
     PROB30 
     TEMPO 2423/2508 VRB18G28KT 3000 SHRA BLDU FEW030TCU 
     BECMG 2509/2511 36015KT 
     BECMG 2514/2516 09009KT
       
OMSJ 241700Z 09009KT 9999 FEW030CB 22/17 Q1012 RETS
TAF OMSJ 241706Z 2418/2600 08009KT 8000 FEW030 
     PROB30 
     TEMPO 2418/2423 VRB25G40KT 1500 TSRA BLDU FEW030CB 
     PROB30 
     TEMPO 2423/2508 VRB18G28KT 3000 SHRA BLDU FEW030TCU 
     BECMG 2505/2507 15013KT 
     BECMG 2509/2511 36015KT 
     BECMG 2515/2517 09009KT
       
OMSJ 241700Z 09009KT 9999 FEW030CB 22/17 Q1012 RETS
TAF OMSJ 241706Z 2418/2600 08009KT 8000 FEW030 
     PROB30 
     TEMPO 2418/2423 VRB25G40KT 1500 TSRA BLDU FEW030CB 
     PROB30 
     TEMPO 2423/2508 VRB18G28KT 3000 SHRA BLDU FEW030TCU 
     BECMG 2505/2507 15013KT 
     BECMG 2509/2511 36015KT 
     BECMG 2515/2517 09009KT
       
OMAA 241700Z 05010KT CAVOK 23/19 Q1010 RETS NOSIG
TAF OMAA 241700Z 2418/2524 05010KT 7000 SCT030 
     PROB30 
     TEMPO 2418/2421 VRB20G38KT 3000 TSRA SCT040CB 
     BECMG 2420/2422 16013KT 
     PROB40 
     TEMPO 2504/2515 VRB25G38KT 2500 TSRA SCT040CB
       
OMAD 241700Z 06007KT CAVOK 23/20 Q1010 NOSIG
TAF OMAD 241700Z 2418/2524 06010KT 7000 SCT030 
     TEMPO 2418/2420 VRB20G35KT 3000 TSRA SCT040CB 
     BECMG 2421/2423 16015KT 
     PROB40 
     TEMPO 2504/2515 VRB20G35KT 4000 TSRA FEW040CB
       
OMAL 241700Z 10011KT 9999 FEW045CB 24/18 Q1011 WS ALL RWY TEMPO VRB25G38KT 2000 TSRA
TAF OMAL 241700Z 2418/2524 10012KT 7000 SCT035 
     TEMPO 2418/2421 VRB25G40KT 2000 TSRA SCT035CB 
     BECMG 2422/2424 17014KT 
     PROB40 
     TEMPO 2506/2515 VRB20G30KT 3000 TSRA FEW040CB
       
OMDB 241700Z 07010KT 050V110 9999 FEW030CB 23/17 Q1012 RETS WS ALL RWY TEMPO VRB25G35KT
TAF OMDB 241706Z 2418/2600 08009KT 8000 FEW030 
     PROB30 
     TEMPO 2418/2423 VRB25G40KT 1500 TSRA BLDU FEW030CB 
     PROB30 
     TEMPO 2423/2508 VRB18G28KT 4000 SHRA FEW030TCU 
     BECMG 2505/2507 15013KT 
     BECMG 2509/2511 36015KT 
     BECMG 2515/2517 08009KT
       
OMDW 241700Z 04011KT CAVOK 22/18 Q1012 WS ALL RWY NOSIG
TAF OMDW 241706Z 2418/2600 09009KT 8000 FEW030 
     PROB30 
     TEMPO 2418/2423 VRB25G40KT 1500 TSRA BLDU FEW030CB 
     PROB30 
     TEMPO 2423/2508 VRB18G28KT 3000 SHRA BLDU FEW030TCU 
     BECMG 2503/2505 15013KT 
     PROB40 2505/2511 17020G30KT 3000 BLDU 
     BECMG 2511/2513 01015KT 
     BECMG 2515/2517 09009KT
       
OMFJ 241700Z 33009KT 320V070 8000 RA FEW020 22/19 Q1016 RMK A3000
TAF OMFJ 241700Z 2418/2524 34010KT 8000 SCT030 
     TEMPO 2418/2504 06010KT TSRA SCT035CB 
     BECMG 2504/2506 12010KT 
     PROB30 
     TEMPO 2504/2512 5000 TSRA FEW035CB
       
OMRK 241700Z 25008KT 230V290 9999 TS SCT035 FEW050CB 20/19 Q1013 A2992
TAF OMRK 241706Z 2418/2600 09009KT 8000 FEW030 
     PROB30 
     TEMPO 2418/2423 VRB25G40KT 1500 TSRA BLDU FEW030CB 
     PROB30 
     TEMPO 2423/2508 VRB18G28KT 3000 SHRA BLDU FEW030TCU 
     BECMG 2509/2511 36015KT 
     BECMG 2514/2516 09009KT
       
OMSJ 241700Z 09009KT 9999 FEW030CB 22/17 Q1012 RETS
TAF OMSJ 241706Z 2418/2600 08009KT 8000 FEW030 
     PROB30 
     TEMPO 2418/2423 VRB25G40KT 1500 TSRA BLDU FEW030CB 
     PROB30 
     TEMPO 2423/2508 VRB18G28KT 3000 SHRA BLDU FEW030TCU 
     BECMG 2505/2507 15013KT 
     BECMG 2509/2511 36015KT 
     BECMG 2515/2517 09009KT